Location: Reggio Emilia
(44.6990°N, 10.6297°E)
Time: 01:56:24
(UTC+01:00)

ISS - Pass Details

Date: 07 December 2021
Orbit: 413 x 422 km, 51.6° (Epoch: 23 January)

Event Time Altitude Azimuth Distance (km) Brightness Sun altitude
Rises 17:05:55 0° 300° (WNW) 2,385 0.6 -5.3°
Reaches altitude 10° 17:08:02 10° 303° (WNW) 1,516 -0.5 -5.7°
Maximum altitude 17:11:26 71° 28° (NNE) 451 -3.8 -6.2°
Drops below altitude 10° 17:14:48 10° 113° (ESE) 1,503 -1.3 -6.7°
Enters shadow 17:17:17 -1° 116° (ESE) 2,519 -0.2 -7.1°
